Location: Bear Valley Community Church - Hurst
(32.8460°N, 97.1828°W)
Time: 10:25:50
(UTC+00:00)

N. Korean satellite - Visible Passes

Search period start: 20 May 2022 00:00
Search period end: 30 May 2022 00:00
Orbit: 439 x 478 km, 97.3° (Epoch: 19 May)

Date Brightness Start Highest point End Pass type
(mag) Time Alt. Az. Time Alt. Az. Time Alt. Az.
21 May 9.4 10:52:38 10° NE 10:55:05 18° E 10:57:31 10° SE visible
24 May 9.4 10:48:22 10° ENE 10:50:29 15° E 10:52:35 10° SE visible
27 May 9.5 10:43:49 10° ENE 10:45:28 13° E 10:47:06 10° ESE visible
